Tracking 35030 objects as of 9-Aug-2026
HD Live streaming from Space Station
objects crossing your sky now

STARLINK-31126

Track STARLINK-31126 now!
10-day predictions
STARLINK-31126 is classified as:


NORAD ID: 58675
Int'l Code: 2023-211J
Launch date: December 29, 2023
Source: United States (US)
Launch site: AIR FORCE EASTERN TEST RANGE (AFETR)
Your satellite tracking list
Your tracking list is empty




NASA's NSSDC Master Catalog

Two Line Element Set (TLE):
1 58675U 23211J   26220.93390840  .00000306  00000-0  20658-4 0  9992
2 58675  43.0019 305.0274 0001271 277.4587  82.6120 15.27579803145750
Source of the keplerian elements: AFSPC